Вернуться в каталог

STARLINK-34729

АктивенСвязьVLEO
NORAD 65364·PAYLOAD·🇺🇸 United States

Запущен Aug 28, 2025 с Cape Canaveral Space Force Station

Loading…

Ближайшие Пролёты (ближайшие 24 часа)

TLE

СвежийSource: CelesTrak SupGP

Эпоха: Sep 15, 2026, 02:38 UTC

1 65364C 25190P   26258.11020833  .00058429  00000+0  17260-2 0  2585
2 65364  53.1594   6.9391 0001183  85.6538   4.2710 15.34366734    16

Отслеживайте STARLINK-34729 в реальном времени с AllMySat

Download on the App Store